Stündliche Wetter Abertillery

Heute, 24 Juni, Donnerstag

Zeit Temperatur Niederschläge Wind Luftdruck Luftfeuchtigkeit
00:00 +12°C° 0 mm 1 m/S 747 mmHg 90%
01:00 +12°C° 0 mm 1 m/S 747 mmHg 89%
02:00 +12°C° 0 mm 1 m/S 747 mmHg 89%
03:00 +12°C° 0 mm 1 m/S 747 mmHg 88%
04:00 +11°C° 0 mm 0 m/S 747 mmHg 88%
05:00 +12°C° 0 mm 0 m/S 747 mmHg 88%
06:00 +12°C° 0 mm 0 m/S 747 mmHg 87%
07:00 +13°C° 0 mm 0 m/S 747 mmHg 86%
08:00 +14°C° 0 mm 1 m/S 747 mmHg 85%
09:00 +15°C° 0 mm 1 m/S 747 mmHg 83%
10:00 +16°C° 0 mm 1 m/S 747 mmHg 81%
11:00 +17°C° 0 mm 2 m/S 746 mmHg 80%
12:00 +19°C° 0 mm 2 m/S 746 mmHg 78%
13:00 +19°C° 0.4 mm 3 m/S 746 mmHg 80%
14:00 +19°C° 0.4 mm 3 m/S 746 mmHg 82%
15:00 +19°C° 0.4 mm 4 m/S 745 mmHg 84%
16:00 +19°C° 0.4 mm 4 m/S 745 mmHg 85%
17:00 +18°C° 0.4 mm 4 m/S 745 mmHg 86%
18:00 +17°C° 0.4 mm 5 m/S 745 mmHg 87%
19:00 +17°C° 0.2 mm 4 m/S 745 mmHg 89%
20:00 +14°C° 0.2 mm 3 m/S 745 mmHg 92%
21:00 +14°C° 0.2 mm 2 m/S 745 mmHg 94%
22:00 +14°C° 0.2 mm 2 m/S 744 mmHg 95%
23:00 +14°C° 0.2 mm 2 m/S 744 mmHg 96%

Morgen, 25 Juni, Freitag

Zeit Temperatur Niederschläge Wind Luftdruck Luftfeuchtigkeit
00:00 +14°C° 0.2 mm 2 m/S 744 mmHg 97%
01:00 +14°C° 0.5 mm 2 m/S 743 mmHg 97%
02:00 +13°C° 0.5 mm 3 m/S 743 mmHg 97%
03:00 +13°C° 0.5 mm 3 m/S 743 mmHg 97%
04:00 +12°C° 0.1 mm 3 m/S 743 mmHg 94%
05:00 +11°C° 0.1 mm 4 m/S 743 mmHg 92%
06:00 +10°C° 0.1 mm 4 m/S 743 mmHg 90%
07:00 +11°C° 0 mm 4 m/S 743 mmHg 85%
08:00 +11°C° 0 mm 4 m/S 743 mmHg 80%
09:00 +12°C° 0 mm 4 m/S 743 mmHg 74%
10:00 +12°C° 0 mm 4 m/S 743 mmHg 74%
11:00 +13°C° 0 mm 4 m/S 742 mmHg 73%
12:00 +14°C° 0 mm 4 m/S 742 mmHg 72%
13:00 +14°C° 0 mm 4 m/S 742 mmHg 71%
14:00 +14°C° 0 mm 4 m/S 742 mmHg 71%
15:00 +14°C° 0 mm 4 m/S 742 mmHg 70%
16:00 +14°C° 0.1 mm 4 m/S 742 mmHg 74%
17:00 +13°C° 0.1 mm 4 m/S 742 mmHg 77%
18:00 +12°C° 0.1 mm 3 m/S 742 mmHg 80%
19:00 +11°C° 0.1 mm 3 m/S 742 mmHg 83%
20:00 +10°C° 0.1 mm 3 m/S 742 mmHg 87%
21:00 +9°C° 0.1 mm 2 m/S 742 mmHg 90%
22:00 +9°C° 0 mm 2 m/S 742 mmHg 91%
23:00 +8°C° 0 mm 2 m/S 742 mmHg 93%

übermorgen, 26 Juni, Samstag

Zeit Temperatur Niederschläge Wind Luftdruck Luftfeuchtigkeit
00:00 +8°C° 0 mm 2 m/S 742 mmHg 94%
01:00 +8°C° 0 mm 2 m/S 742 mmHg 94%
02:00 +8°C° 0 mm 2 m/S 742 mmHg 94%
03:00 +8°C° 0 mm 2 m/S 742 mmHg 94%
04:00 +9°C° 0 mm 2 m/S 742 mmHg 93%
05:00 +9°C° 0 mm 3 m/S 742 mmHg 92%
06:00 +9°C° 0 mm 3 m/S 742 mmHg 92%
07:00 +10°C° 0 mm 3 m/S 742 mmHg 89%
08:00 +11°C° 0 mm 4 m/S 742 mmHg 86%
09:00 +12°C° 0 mm 4 m/S 742 mmHg 83%
10:00 +13°C° 0.1 mm 5 m/S 742 mmHg 81%
11:00 +14°C° 0.1 mm 5 m/S 742 mmHg 79%
12:00 +15°C° 0.1 mm 5 m/S 742 mmHg 77%
13:00 +15°C° 0.2 mm 5 m/S 742 mmHg 76%
14:00 +16°C° 0.2 mm 5 m/S 742 mmHg 74%
15:00 +17°C° 0.2 mm 5 m/S 742 mmHg 73%
16:00 +17°C° 0.5 mm 4 m/S 742 mmHg 80%
17:00 +15°C° 0.5 mm 4 m/S 742 mmHg 86%
18:00 +13°C° 0.5 mm 3 m/S 742 mmHg 92%
19:00 +13°C° 0.4 mm 4 m/S 742 mmHg 93%
20:00 +13°C° 0.4 mm 4 m/S 742 mmHg 94%
21:00 +13°C° 0.4 mm 4 m/S 742 mmHg 95%
22:00 +13°C° 0.4 mm 4 m/S 742 mmHg 95%
23:00 +12°C° 0.4 mm 4 m/S 742 mmHg 94%

27 Juni, Sonntag

Zeit Temperatur Niederschläge Wind Luftdruck Luftfeuchtigkeit
00:00 +12°C° 0.4 mm 5 m/S 742 mmHg 93%
01:00 +12°C° 0.2 mm 5 m/S 742 mmHg 92%
02:00 +10°C° 0.2 mm 5 m/S 742 mmHg 92%
03:00 +9°C° 0.2 mm 5 m/S 741 mmHg 91%
04:00 +9°C° 0.2 mm 5 m/S 741 mmHg 91%
05:00 +9°C° 0.2 mm 5 m/S 741 mmHg 91%
06:00 +9°C° 0.2 mm 5 m/S 741 mmHg 90%
07:00 +10°C° 0 mm 5 m/S 741 mmHg 85%
08:00 +11°C° 0 mm 6 m/S 741 mmHg 81%
09:00 +13°C° 0 mm 6 m/S 741 mmHg 76%
10:00 +14°C° 0 mm 7 m/S 741 mmHg 74%
11:00 +15°C° 0 mm 7 m/S 741 mmHg 72%
12:00 +16°C° 0 mm 7 m/S 741 mmHg 70%
13:00 +17°C° 0 mm 7 m/S 741 mmHg 71%
14:00 +19°C° 0 mm 6 m/S 741 mmHg 72%
15:00 +19°C° 0 mm 6 m/S 740 mmHg 73%
16:00 +19°C° 0.1 mm 6 m/S 740 mmHg 76%
17:00 +17°C° 0.1 mm 6 m/S 740 mmHg 80%
18:00 +17°C° 0.1 mm 6 m/S 740 mmHg 83%
19:00 +16°C° 0.3 mm 6 m/S 741 mmHg 86%
20:00 +15°C° 0.3 mm 6 m/S 741 mmHg 90%
21:00 +14°C° 0.3 mm 6 m/S 741 mmHg 93%
22:00 +14°C° 0.1 mm 5 m/S 741 mmHg 93%
23:00 +14°C° 0.1 mm 5 m/S 741 mmHg 93%

28 Juni, Montag

Zeit Temperatur Niederschläge Wind Luftdruck Luftfeuchtigkeit
00:00 +14°C° 0.1 mm 4 m/S 741 mmHg 93%
01:00 +13°C° 0 mm 4 m/S 741 mmHg 93%
02:00 +12°C° 0 mm 4 m/S 741 mmHg 93%
03:00 +12°C° 0 mm 4 m/S 741 mmHg 93%
04:00 +12°C° 0 mm 4 m/S 741 mmHg 92%
05:00 +12°C° 0 mm 4 m/S 741 mmHg 91%
06:00 +13°C° 0 mm 4 m/S 741 mmHg 91%
07:00 +13°C° 0.1 mm 4 m/S 741 mmHg 88%
08:00 +14°C° 0.1 mm 5 m/S 742 mmHg 85%
09:00 +14°C° 0.1 mm 5 m/S 742 mmHg 83%
10:00 +14°C° 0.1 mm 5 m/S 742 mmHg 85%
11:00 +14°C° 0.1 mm 5 m/S 742 mmHg 86%
12:00 +14°C° 0.1 mm 5 m/S 742 mmHg 88%
13:00 +14°C° 0.1 mm 4 m/S 742 mmHg 87%
14:00 +15°C° 0.1 mm 4 m/S 742 mmHg 87%
15:00 +16°C° 0.1 mm 3 m/S 742 mmHg 86%
16:00 +14°C° 0.6 mm 3 m/S 743 mmHg 89%
17:00 +14°C° 0.6 mm 3 m/S 743 mmHg 92%
18:00 +15°C° 0.6 mm 2 m/S 743 mmHg 95%
19:00 +14°C° 0.7 mm 2 m/S 743 mmHg 95%
20:00 +14°C° 0.7 mm 2 m/S 743 mmHg 95%
21:00 +14°C° 0.7 mm 1 m/S 743 mmHg 96%
22:00 +14°C° 0.1 mm 1 m/S 743 mmHg 95%
23:00 +14°C° 0.1 mm 1 m/S 743 mmHg 95%

29 Juni, Dienstag

Zeit Temperatur Niederschläge Wind Luftdruck Luftfeuchtigkeit
00:00 +14°C° 0.1 mm 1 m/S 744 mmHg 95%
01:00 +14°C° 0 mm 1 m/S 744 mmHg 95%
02:00 +13°C° 0 mm 1 m/S 744 mmHg 94%
03:00 +13°C° 0 mm 1 m/S 744 mmHg 94%
04:00 +14°C° 0 mm 1 m/S 744 mmHg 93%
05:00 +14°C° 0 mm 1 m/S 744 mmHg 92%
06:00 +14°C° 0 mm 1 m/S 744 mmHg 91%
07:00 +16°C° 0 mm 2 m/S 744 mmHg 86%
08:00 +17°C° 0 mm 2 m/S 745 mmHg 81%
09:00 +18°C° 0 mm 2 m/S 745 mmHg 76%
10:00 +19°C° 0 mm 3 m/S 745 mmHg 72%
11:00 +20°C° 0 mm 3 m/S 745 mmHg 68%
12:00 +21°C° 0 mm 3 m/S 745 mmHg 65%
13:00 +21°C° 0 mm 3 m/S 745 mmHg 64%
14:00 +21°C° 0 mm 3 m/S 745 mmHg 64%
15:00 +21°C° 0 mm 3 m/S 745 mmHg 63%
16:00 +21°C° 0 mm 2 m/S 745 mmHg 67%
17:00 +21°C° 0 mm 2 m/S 745 mmHg 70%
18:00 +20°C° 0 mm 2 m/S 745 mmHg 74%
19:00 +20°C° 0 mm 1 m/S 746 mmHg 79%
20:00 +18°C° 0 mm 1 m/S 746 mmHg 85%
21:00 +15°C° 0 mm 1 m/S 746 mmHg 90%
22:00 +15°C° 0 mm 1 m/S 746 mmHg 91%
23:00 +14°C° 0 mm 1 m/S 746 mmHg 92%
Mehr zeigen

Wir brauchen deine Erlaubnis

Meteoprog und unser Service Anbieter werden persönliche Daten aufbewahren, so wie Cookies, Geräte Bezeichnung oder ähnliche Technologien von deinem Gerät und Prozess, so wie Persönliche Daten Inhalte und Werbungen, genauso wie social Media und den Verkehr zu analysieren.

  • Aufbewahrung und/oder Zugang zu deiner Geräte Informationen.

    Cookies, Geräte Bezeichnung oder andere Informationen, können aufbewahrt oder Zugang zu deinem Gerät erhalten, für den Grund, der oben angegeben wird.

  • Personalisierte Werbung und Inhalte, Messungen, Einblick in das Publikum und Produkt Entwicklung.

    Werbungen und Inhalte können personalisiert werden, basierend auf ein Profil. Mehr Daten können besser personalisierte Werbungen und Inhalte hinzufügen. Werbung und Inhalte können gezeigt und gemessen werden. Einblicke über das Publikum, welche die Werbung gesehen haben und den Inhalt, können abgeleitet werden. So wie Daten können genutzt werden, um es zu verbessern oder die Benutzer Erfahrung zu verbessern das System und die Software.

Wenn du “Ich stimme zu” klickst, erlaubst du uns, die Cookies zu benutzen die Geräte Bezeichnung, den Web oder ähnliche Technologien zu benutzen. Deine Settings, können in deinem Gerät bei deinem Browser geändert werden.

Für den bestimmten Zweck, berechtigten Interessen beruhen darauf, mehr als auf den Inhalt. Du kannst mehr darüber in unseren Privaten und Cookie Politik lesen.